TimeMDT,TemperatureF,Dew PointF,Humidity,Sea Level PressureIn,VisibilityMPH,Wind Direction,Wind SpeedMPH,Gust SpeedMPH,PrecipitationIn,Events,Conditions,WindDirDegrees,DateUTC
12:53 AM,60.1,55.0,83,29.80,10.0,NW,8.1,-,0.00,Rain,Light Rain,320,2013-06-14 06:53:00
1:21 AM,59.0,57.2,94,29.86,8.0,West,15.0,-,0.02,Rain,Light Rain,270,2013-06-14 07:21:00
1:29 AM,57.2,57.2,100,29.86,8.0,West,12.7,-,0.03,Rain-Thunderstorm,Light Thunderstorms and Rain,270,2013-06-14 07:29:00
1:48 AM,57.2,57.2,100,29.88,6.0,West,11.5,-,0.05,Rain-Thunderstorm,Rain,270,2013-06-14 07:48:00
1:53 AM,57.9,57.0,97,29.87,5.0,West,11.5,-,0.07,Rain-Thunderstorm,Rain,270,2013-06-14 07:53:00
2:07 AM,57.2,57.2,100,29.88,5.0,West,16.1,-,0.03,Rain-Thunderstorm,Rain,270,2013-06-14 08:07:00
2:35 AM,57.2,57.2,100,29.89,3.0,West,19.6,24.2,0.14,Rain-Thunderstorm,Heavy Rain,280,2013-06-14 08:35:00
2:51 AM,57.2,55.4,94,29.89,4.0,WNW,17.3,-,0.20,Rain-Thunderstorm,Thunderstorms and Rain,290,2013-06-14 08:51:00
2:53 AM,57.0,55.9,96,29.87,4.0,WNW,17.3,25.3,0.21,Rain-Thunderstorm,Thunderstorms and Rain,290,2013-06-14 08:53:00
3:11 AM,57.2,55.4,94,29.83,4.0,NW,16.1,26.5,0.09,Rain,Rain,310,2013-06-14 09:11:00
3:25 AM,57.2,55.4,94,29.83,10.0,NW,17.3,-,0.09,Rain,Light Rain,320,2013-06-14 09:25:00
3:53 AM,57.0,55.9,96,29.79,10.0,NW,15.0,-,0.09,,Overcast,320,2013-06-14 09:53:00
4:25 AM,57.2,55.4,94,29.80,10.0,NW,12.7,-,N/A,,Overcast,320,2013-06-14 10:25:00
4:53 AM,57.0,55.0,93,29.79,10.0,NNW,13.8,-,0.00,Rain,Light Rain,340,2013-06-14 10:53:00
5:53 AM,55.9,53.1,90,29.78,10.0,West,16.1,28.8,0.01,,Scattered Clouds,260,2013-06-14 11:53:00
6:07 AM,55.4,53.6,94,29.80,10.0,West,15.0,-,N/A,,Partly Cloudy,270,2013-06-14 12:07:00
6:53 AM,57.0,54.0,89,29.79,10.0,WNW,12.7,-,N/A,,Clear,290,2013-06-14 12:53:00
7:53 AM,60.1,55.0,83,29.79,10.0,WNW,11.5,-,N/A,,Clear,300,2013-06-14 13:53:00
8:53 AM,61.0,54.0,78,29.81,10.0,West,11.5,-,N/A,,Mostly Cloudy,280,2013-06-14 14:53:00
9:38 AM,64.4,53.6,68,29.83,10.0,WNW,12.7,23.0,N/A,,Mostly Cloudy,290,2013-06-14 15:38:00
9:53 AM,64.0,54.0,70,29.82,10.0,West,13.8,-,N/A,,Scattered Clouds,280,2013-06-14 15:53:00
10:53 AM,66.0,52.0,60,29.82,10.0,West,17.3,21.9,N/A,,Partly Cloudy,260,2013-06-14 16:53:00
11:53 AM,64.0,52.0,65,29.82,10.0,West,12.7,-,N/A,,Scattered Clouds,270,2013-06-14 17:53:00
12:53 PM,55.0,50.0,83,29.86,10.0,SW,25.3,38.0,0.00,Rain-Thunderstorm,Light Rain,220,2013-06-14 18:53:00
1:02 PM,55.4,50.0,82,29.85,10.0,SW,24.2,38.0,0.00,,Overcast,220,2013-06-14 19:02:00
1:53 PM,61.0,48.0,62,29.85,10.0,WSW,18.4,23.0,0.00,,Clear,240,2013-06-14 19:53:00
2:53 PM,64.0,48.9,58,29.85,10.0,WSW,18.4,25.3,N/A,,Clear,240,2013-06-14 20:53:00
3:53 PM,69.1,46.9,45,29.83,10.0,West,19.6,27.6,N/A,,Scattered Clouds,280,2013-06-14 21:53:00
4:53 PM,66.9,45.0,45,29.85,10.0,West,26.5,32.2,0.00,,Scattered Clouds,280,2013-06-14 22:53:00
5:53 PM,66.0,43.0,43,29.87,10.0,West,26.5,32.2,N/A,,Clear,280,2013-06-14 23:53:00
6:53 PM,64.9,44.1,47,29.87,10.0,West,12.7,-,N/A,,Clear,280,2013-06-15 00:53:00
7:53 PM,64.0,46.0,52,29.88,10.0,West,9.2,-,N/A,,Clear,260,2013-06-15 01:53:00
8:53 PM,59.0,46.0,62,29.88,10.0,WSW,6.9,-,N/A,,Scattered Clouds,250,2013-06-15 02:53:00
9:53 PM,57.0,46.0,67,29.89,10.0,WSW,8.1,-,N/A,,Partly Cloudy,250,2013-06-15 03:53:00
10:53 PM,55.9,46.0,69,29.89,10.0,SW,8.1,-,N/A,,Scattered Clouds,230,2013-06-15 04:53:00
11:53 PM,54.0,46.0,75,29.91,10.0,West,6.9,-,N/A,,Clear,280,2013-06-15 05:53:00